Regional Weather Roundup
Issued by NWS

Home | Current Version | Previous Version | Text Only | Print | Product List | Glossary On
Versions: 1 2 3 4 5 6 7 8 9 10 11 12 13 14 15 16 17 18 19 20 21 22 23 24 25 26 27 28 29 30 31 32 33 34 35 36 37 38 39 40 41 42 43 44 45 46 47 48 49 50
000
ASUS44 KJAN 190503
RWRMS

MISSISSIPPI HOURLY WEATHER ROUNDUP
NATIONAL WEATHER SERVICE JACKSON MS
1200 AM CDT FRI SEP 19 2014

NOTE: "FAIR: INDICATES FEW OR NO CLOUDS BELOW 12,000 FEET WITH NO
SIGNIFICANT WEATHER AND/OR OBSTRUCTIONS TO VISIBILITY.

MSZ001>002-007>008-010>013-018>021-025>028-034>036-190600-
NORTHWEST MISSISSIPPI

CITY           SKY/WX    TMP DP  RH WIND       PRES   REMARKS
CLARKSDALE       N/A     68  68 100 CALM      30.00S
CLEVELAND      FAIR      70  70 100 CALM      29.97R
GREENWOOD      CLOUDY    70  68  93 SE3       29.99R
GREENVILLE     PTCLDY    72  67  84 CALM      29.96R
GRENADA        MOCLDY    70  68  94 E8        30.01R
OLIVE BRANCH   CLEAR     66  66 100 E3        30.01R
OXFORD         FAIR      64  64 100 CALM      30.03R
TUNICA         CLEAR     68  64  88 E3        30.02R
$$

MSZ003>006-009-014>017-022>024-029>033-037>039-190600-
NORTHEAST MISSISSIPPI

CITY           SKY/WX    TMP DP  RH WIND       PRES   REMARKS
COLUMBUS AFB   LGT RAIN  69  68  99 SE3       30.01S
CORINTH        CLOUDY    68  66  94 E3        30.01S
GOLDN TRIANGLE CLOUDY    70  64  83 NE8       30.01S
STARKVILLE     FAIR      70  68  94 E5        30.00F
TUPELO         CLOUDY    69  67  93 CALM      30.00S
$$

MSZ040-058-190600-
CENTRAL MISSISSIPPI

CITY           SKY/WX    TMP DP  RH WIND       PRES   REMARKS
JACKSON INTL   CLOUDY    71  67  87 S3        29.97S
JACKSON HAWKNS CLOUDY    71  66  84 SE7       29.97F
MERIDIAN KEY   LGT RAIN  70  68  93 NE3       29.98F
MERIDIAN NAS   LGT RAIN  70  68  93 NW3       29.99F
RAYMOND        FAIR      72  66  83 SE8       29.97R
VICKSBURG      MOCLDY    73  66  78 SE6       29.95S
$$

MSZ059>079-190600-
SOUTH MISSISSIPPI

CITY           SKY/WX    TMP DP  RH WIND       PRES   REMARKS
BROOKHAVEN     FAIR      72  70  94 SE3       30.00R
COLUMBIA       FAIR      70  70 100 CALM      29.96S
HATTIESBURG    CLOUDY    73  69  87 CALM      29.98S
MCCOMB         LGT RAIN  71  69  93 N3        29.98S
NATCHEZ        CLOUDY    70  66  88 E7        29.97F
PINE BELT      CLOUDY    70  66  88 NE5       29.98F
$$

MSZ080>082-190600-
COASTAL MISSISSIPPI

CITY           SKY/WX    TMP DP  RH WIND       PRES   REMARKS
BILOXI         LGT RAIN  73  70  88 N3        29.96R
PASCAGOULA     CLOUDY    72  69  90 CALM      29.94S
GULFPORT       LGT RAIN  73  70  90 NE5       29.96R
$$



USA.gov is the U.S. government's official web portal to all federal, state and local government web resources and services.